G4MDH Weather Reports


Display with metric or nautical units.
time (UTC)temp
F
wind
direction
speed
MPH
gust
MPH
rain 1hr
in
rain 24hr
in
rain mn
in
humidity
%
barometer
mb
20260510213820 45 123 1.0 4.0 0.00 0.00 0.00 70 1014.5
20260510213324 45 136 1.0 4.0 0.00 0.00 0.00 70 1014.4
20260510212824 45 110 1.0 3.0 0.00 0.00 0.00 70 1014.4
20260510212314 45 94 1.0 3.0 0.00 0.00 0.00 69 1014.4
20260510211812 45 108 1.0 6.0 0.00 0.00 0.00 69 1014.4
20260510211342 46 143 2.0 6.0 0.00 0.00 0.00 69 1014.4
20260510210821 46 114 1.0 5.0 0.00 0.00 0.00 68 1014.4
20260510210329 46 122 1.0 6.0 0.00 0.00 0.00 68 1014.3
20260510205856 46 125 2.0 6.0 0.00 0.00 0.00 68 1014.3
20260510205335 46 124 1.0 5.0 0.00 0.00 0.00 68 1014.3
20260510204814 47 121 2.0 6.0 0.00 0.00 0.00 68 1014.4
20260510204322 47 124 1.0 6.0 0.00 0.00 0.00 68 1014.3
20260510203822 47 131 1.0 4.0 0.00 0.00 0.00 67 1014.4
20260510203332 47 130 2.0 4.0 0.00 0.00 0.00 67 1014.5
20260510202811 47 142 1.0 5.0 0.00 0.00 0.00 67 1014.4
20260510202312 47 150 1.0 5.0 0.00 0.00 0.00 67 1014.3
20260510201841 47 107 1.0 4.0 0.00 0.00 0.00 67 1014.3
20260510201320 48 108 1.0 4.0 0.00 0.00 0.00 66 1014.3
20260510200848 48 119 0.0 5.0 0.00 0.00 0.00 66 1014.4
20260510200327 48 160 1.0 5.0 0.00 0.00 0.00 66 1014.4
20260510195834 48 139 2.0 4.0 0.00 0.00 0.00 65 1014.4
20260510195313 49 106 2.0 5.0 0.00 0.00 0.00 65 1014.4
20260510194816 49 124 2.0 5.0 0.00 0.00 0.00 64 1014.4
20260510194316 49 118 2.0 4.0 0.00 0.00 0.00 64 1014.4
20260510193816 50 143 1.0 5.0 0.00 0.00 0.00 64 1014.4
20260510193325 50 130 2.0 5.0 0.00 0.00 0.00 63 1014.3
20260510192852 50 105 2.0 7.0 0.00 0.00 0.00 63 1014.3
20260510192329 50 122 2.0 7.0 0.00 0.00 0.00 62 1014.3
20260510191829 51 131 2.0 6.0 0.00 0.00 0.00 62 1014.4
20260510191316 51 116 1.0 6.0 0.00 0.00 0.00 61 1014.2
20260510190821 51 129 2.0 6.0 0.00 0.00 0.00 61 1014.3
20260510190323 52 259 2.0 6.0 0.00 0.00 0.00 60 1014.2
20260510185829 52 136 1.0 5.0 0.00 0.00 0.00 60 1014.2
20260510185349 52 128 2.0 6.0 0.00 0.00 0.00 59 1014.2
20260510184835 53 143 3.0 6.0 0.00 0.00 0.00 58 1014.2
20260510184316 53 114 2.0 7.0 0.00 0.00 0.00 58 1014.2
20260510183816 53 126 4.0 7.0 0.00 0.00 0.00 57 1014.1
20260510183326 54 164 1.0 9.0 0.00 0.00 0.00 57 1014.1
20260510182852 54 114 4.0 9.0 0.00 0.00 0.00 57 1014.2
20260510182311 54 99 3.0 8.0 0.00 0.00 0.00 57 1014.2
20260510181813 55 105 3.0 8.0 0.00 0.00 0.00 56 1014.2
20260510181342 55 153 3.0 8.0 0.00 0.00 0.00 57 1014.3
20260510180852 55 104 3.0 9.0 0.00 0.00 0.00 57 1014.3